Regional Weather Roundup
Issued by NWS

Home | Current Version | Previous Version | Text Only | Print | Product List | Glossary On
Versions: 1 2 3 4 5 6 7 8 9 10 11 12 13 14 15 16 17 18 19 20 21 22 23 24 25 26 27 28 29 30 31 32 33 34 35 36 37 38 39 40 41 42 43 44 45 46 47 48 49 50
000
ASUS43 KMKX 291720
RWRWI

WISCONSIN REGIONAL WEATHER ROUNDUP
NATIONAL WEATHER SERVICE MILWAUKEE/SULLIVAN WI
1200 PM CDT SUN MAR 29 2015

NOTE: "FAIR" INDICATES FEW OR NO CLOUDS BELOW 12,000 FEET WITH NO
SIGNIFICANT WEATHER AND/OR OBSTRUCTIONS TO VISIBILITY.

WIZ001-002-006>008-014>016-023>028-291800-
NORTHWEST WISCONSIN

CITY           SKY/WX    TMP DP  RH WIND       PRES   REMARKS
SUPERIOR ARPT  LGT SNOW  32  32  99 SW9       29.52R VSB 1   WCI  25
ASHLAND        LGT SNOW  34  32  92 SW10      29.50S FOG     WCI  26
HAYWARD        LGT SNOW  33  31  92 SW9       29.51S FOG     WCI  25
SIREN          CLOUDY    38  36  94 W9        29.53R FOG     WCI  31
CUMBERLAND     DRIZZLE   34  32  93 SW10      29.52S WCI  26
RICE LAKE      DRIZZLE   35  33  92 SW5       29.55S WCI  31
CHETEK         DRIZZLE   35  34  96 S8        29.54S WCI  29
LADYSMITH      LGT SNOW  33  32  94 S7        29.55F WCI  27
EAU CLAIRE     NOT AVBL
MENOMONIE      CLOUDY    41  37  86 SW15G21   29.56F
NEW RICHMOND   DRIZZLE   40  39  97 SW12      29.55R WCI  33
OSCEOLA        RAIN      41  41 100 W13       29.58R
$$

WIZ003>005-009-010-017-018-291800-
NORTH CENTRAL WISCONSIN

CITY           SKY/WX    TMP DP  RH WIND       PRES   REMARKS
MANITOWISH WTR CLOUDY    32  31  96 SW16G22   29.51F FOG     WCI  21
ARBOR VITAE    LGT SNOW  32  29  90 SW10G21   29.52F WCI  23
WOODRUFF       LGT SNOW  32  29  90 SW10G21   29.52F WCI  23
RHINELANDER    CLOUDY    31  28  89 S21G29    29.54F FOG     WCI  18
EAGLE RIVER    MIX PCPN  31  27  87 SW13G18   29.53F WCI  21
LAND O LAKES   CLOUDY    31  28  90 S10G23    29.52F WCI  22
PHILLIPS       CLOUDY    32  31  94 SW14G22   29.52F FOG     WCI  22
TOMAHAWK       RAIN      31  29  92 CALM      29.56F
MEDFORD        MIX PCPN  32  31  96 S14       29.56F WCI  22
MERRILL        MIX PCPN  32  31  97 SW10G16   29.58F WCI  23
$$

WIZ029-030-035-036-043>047-291800-
CENTRAL WISCONSIN

CITY           SKY/WX    TMP DP  RH WIND       PRES   REMARKS
WAUSAU         CLOUDY    32  30  92 S18G26    29.58F FOG     WCI  20
MOSINEE        CLOUDY    32  32 100 S16G23    29.62F FOG     WCI  21
MARSHFIELD     CLOUDY    34  31  88 S21G26    29.60F FOG     WCI  22
STEVENS POINT  CLOUDY    31  29  93 S14G22    29.65F WCI  21
WAUPACA        CLOUDY    34  30  86 S14       29.70F WCI  25
WAUTOMA        CLOUDY    33  32  96 S12       29.72F WCI  24
WISC RAPIDS    CLOUDY    34  29  82 SW17G28   29.66F WCI  23
CAMP DOUGLAS   CLOUDY    36  36 100 SW16G24   29.68F WCI  26
$$

WIZ011>013-019>022-031-037>040-048>050-291800-
NORTHEAST WISCONSIN

CITY           SKY/WX    TMP DP  RH WIND       PRES   REMARKS
ANTIGO         CLOUDY    30  29  96 SW14G20   29.59F FOG     WCI  20
SHAWANO        DRIZZLE   33  30  88 SW9       29.67F WCI  26
OCONTO         CLOUDY    32  32  99 SW10      29.71S WCI  24
STURGEON BAY   CLOUDY    32  27  80 S22G31    29.72S WCI  19
GREEN BAY      LGT RAIN  34  30  85 S23G37    29.71F FOG     WCI  22
MANITOWOC      LGT RAIN  33  30  88 S26       29.73F WCI  20
APPLETON       CLOUDY    32  28  86 S16       29.73S WCI  21
CLINTONVILLE   MIX PCPN  32  30  93 S13       29.69F WCI  22
OSHKOSH        CLOUDY    33  28  81 S26G35    29.73S WCI  20
$$

WIZ032>034-041-042-053>061-291800-
SOUTHWEST WISCONSIN

CITY           SKY/WX    TMP DP  RH WIND       PRES   REMARKS
LA CROSSE      CLOUDY    41  34  76 S13G21    29.68F
SPARTA         CLOUDY    36  32  84 S12       29.67F WCI  28
VIROQUA        CLOUDY    34  34 100 S15       29.69F WCI  24
BOSCOBEL       CLOUDY    38  32  79 SW13      29.77F WCI  30
PRAIRIE DU CHI CLOUDY    37  32  80 S3        29.78F
PLATTEVILLE    CLOUDY    33  32  93 S9        29.81F WCI  26
$$

WIZ056-057-062-063-064-067-068-291800-
SOUTH CENTRAL WISCONSIN

CITY           SKY/WX    TMP DP  RH WIND       PRES   REMARKS
REEDSBURG      CLOUDY    33  31  92 S13G20    29.73F WCI  23
BARABOO/DELLS  CLOUDY    33  30  90 SW15      29.72F WCI  23
LONE ROCK      CLOUDY    36  30  79 SW12G21   29.78F WCI  28
MINERAL POINT  CLOUDY    34  32  93 S13       29.78F WCI  25
MADISON        CLOUDY    34  29  82 S17G28    29.79F WCI  23
MIDDLETON      CLOUDY    35  30  83 SW16      29.77F WCI  25
WATERTOWN      CLOUDY    32  31  98 S17G24    29.81R FOG     WCI  21
MONROE         CLOUDY    32  30  93 S25G37    29.81F WCI  19
JANESVILLE     NOT AVBL
$$

WIZ051-052-058>065-066-070>072-291800-
SOUTHEAST WISCONSIN

CITY           SKY/WX    TMP DP  RH WIND       PRES   REMARKS
MILWAUKEE      LGT SNOW  35  26  69 S26G35    29.83F WCI  22
WAUKESHA       LGT RAIN  30  25  80 S17G35    29.81F FOG     WCI  18
MILWAUKEE/TIMM CLOUDY    34  27  75 S23G32    29.81F WCI  22
RACINE         LGT RAIN  36  25  64 S22G35    29.88F WCI  25
BURLINGTON     CLOUDY    32  28  85 SW21G30   29.86F WCI  20
KENOSHA        MIX PCPN  35  27  72 S26G39    29.87F WCI  22
FOND DU LAC    LGT RAIN  33  29  85 S20G29    29.75F WCI  21
SHEBOYGAN      CLOUDY    34  27  75 S24G32    29.77F WCI  21
WEST BEND      DRIZZLE   32  28  86 S13G21    29.77F WCI  22
JUNEAU         CLOUDY    32  30  92 S18G25    29.80R FOG     WCI  20
$$

LSZ147-162-291800-
LAKE SUPERIOR

STATION/POSITION TIME  TEMP    WIND        PRES    WAVE
                       AIR SEA DIR/SP/G            HT/PER
                 (UTC) (F)     (DEG/KT/KT) (MB)    (FT/S)
DEVILS ISLAND    1700   33     240/ 15/ 17  998.8F
PORT WING        1640   36     200/  8/ 13  999.3S
SAXON HARBOR     1600   37     210/  9/ 21  998.6F
$$

LMZ867-665-643>646-291800-
LAKE MICHIGAN

STATION/POSITION TIME  TEMP    WIND        PRES    WAVE
                       AIR SEA DIR/SP/G            HT/PER
                 (UTC) (F)     (DEG/KT/KT) (MB)    (FT/S)
NORTHPORT PIER   1620   34     160/ 16     1006.4F
SISTER BAY       1602   34     210/ 29/ 37   N/A
KEWAUNEE LAKESHO 1600   34     190/ 29/ 38 1008.6F
SHEBOYGAN LAKESH 1700   35     170/ 29/ 33 1008.5F
PORT WASHINGTON  1621   36     200/ 13/ 24 1011.2F
MILWAUKEE LAKESH 1700   35     190/ 22/ 27   N/A
KENOSHA   LAKESH 1700   36     200/ 23/ 34 1011.2F
$$

TC  - TEMPERATURE IN CELSIUS
VSB - VISIBILITY IN STATUTE MILES
WCI - WIND CHILL INDEX
HX  - HEAT INDEX



USA.gov is the U.S. government's official web portal to all federal, state and local government web resources and services.